Location: Great Malvern
(52.1167°N, 2.3167°W)
Time: 01:30:33
(UTC+00:00)

MetOp-A - Pass Details

Date: 18 September 2020
Orbit: 820 x 821 km, 98.5° (Epoch: 23 October)

Event Time Altitude Azimuth Distance (km) Brightness Sun altitude
Exits shadow 20:03:48 - 170° (S) 2,485 6.3 -16.8°
Reaches altitude 10° 20:03:59 10° 170° (S) 2,413 6.2 -16.8°
Maximum altitude 20:09:20 75° 256° (WSW) 853 4.3 -17.5°
Drops below altitude 10° 20:14:44 10° 342° (NNW) 2,431 7.2 -18.3°
Sets 20:17:06 0° 344° (NNW) 3,368 8.0 -18.6°
